Hickory, NC

5:27 PM EDT on May 25, 2017 (GMT -0400)
Hickory Regional

Weather History for KHKY - November, 2012

Change the Weather History Date:

Wednesday, November 14, 2012

  Actual Average Record
Temperature  
Mean Temperature 41 °F -  
Max Temperature 48 °F 58 °F 78 °F (1999)
Min Temperature 34 °F 34 °F 17 °F (1986)
Degree Days  
Heating Degree Days 24    
Moisture  
Dew Point 27 °F    
Average Humidity 61    
Maximum Humidity 82    
Minimum Humidity 44    
Precipitation  
Precipitation 0.00 in - - ()
Sea Level Pressure  
Sea Level Pressure 30.39 in    
Wind  
Wind Speed 4 mph (NE)    
Max Wind Speed 13 mph    
Max Gust Speed 20 mph    
Visibility 10 miles    
Events      
Averages and records for this station are not official NWS values.
T = Trace of Precipitation, MM = Missing Value Source: NWS Daily Summary

Daily Weather History Graph

Daily Weather History Graph

Search for Another Location

Airport or City:

Trip Planner

Search our weather history database for the weather conditions in past years. The results will help you decide how hot, cold, wet, or windy it might be!

Date:

Astronomy

Nov. 14, 2012 Rise Set
Actual Time 7:00 AM EST 5:18 PM EST
Civil Twilight 6:33 AM EST 5:45 PM EST
Nautical Twilight 6:02 AM EST 6:16 PM EST
Astronomical Twilight 5:32 AM EST 6:47 PM EST
Moon 7:46 AM EST (11/14) 6:08 PM EST (11/14)
Length of Visible Light 11h 12m
Length of Day
10h 17m
New Moon, 1% of the Moon is Illuminated
Nov 14
New Moon
Nov 20
First Quarter
Nov 28
Full
Dec 6
Last Quarter
Dec 13
New

Hourly Weather History & Observations

Time (EST) Temp. Windchill Dew Point Humidity Pressure Visibility Wind Dir Wind Speed Gust Speed Precip Events Conditions
12:53 AM 37.0 °F 34.5 °F 26.1 °F 65% 30.37 in 10.0 mi North 3.5 mph - N/A   Clear
1:53 AM 35.1 °F 32.2 °F 26.1 °F 70% 30.36 in 10.0 mi North 3.5 mph - N/A   Clear
2:53 AM 34.0 °F - 26.1 °F 73% 30.38 in 10.0 mi Calm Calm - N/A   Clear
3:48 AM 35.6 °F 30.7 °F 26.6 °F 70% 30.41 in 10.0 mi NE 5.8 mph - N/A   Mostly Cloudy
3:53 AM 35.1 °F 32.2 °F 28.0 °F 76% 30.39 in 10.0 mi NE 3.5 mph - N/A   Mostly Cloudy
4:53 AM 34.0 °F - 28.9 °F 82% 30.40 in 10.0 mi Calm Calm - N/A   Partly Cloudy
5:53 AM 34.0 °F 27.2 °F 27.0 °F 75% 30.42 in 10.0 mi ENE 8.1 mph - N/A   Clear
6:53 AM 34.0 °F 29.8 °F 26.1 °F 73% 30.45 in 10.0 mi NNE 4.6 mph - N/A   Clear
7:53 AM 35.1 °F 29.3 °F 26.1 °F 70% 30.47 in 10.0 mi NE 6.9 mph - N/A   Clear
8:53 AM 37.9 °F 30.9 °F 26.1 °F 62% 30.48 in 10.0 mi ENE 10.4 mph - N/A   Clear
9:53 AM 41.0 °F 33.9 °F 25.0 °F 53% 30.47 in 10.0 mi ENE 12.7 mph 19.6 mph N/A   Clear
10:53 AM 43.0 °F 37.7 °F 26.1 °F 51% 30.46 in 10.0 mi NNE 9.2 mph - N/A   Clear
11:53 AM 45.0 °F 42.6 °F 27.0 °F 49% 30.43 in 10.0 mi NE 4.6 mph - N/A   Clear
12:53 PM 46.9 °F - 27.0 °F 46% 30.38 in 10.0 mi NE 6.9 mph - N/A   Clear
1:53 PM 48.9 °F - 28.0 °F 44% 30.35 in 10.0 mi Variable 4.6 mph - N/A   Clear
2:53 PM 48.0 °F - 28.0 °F 46% 30.34 in 10.0 mi ENE 8.1 mph - N/A   Clear
3:53 PM 48.0 °F - 28.0 °F 46% 30.33 in 10.0 mi NE 6.9 mph - N/A   Clear
4:53 PM 45.0 °F 42.6 °F 28.0 °F 52% 30.33 in 10.0 mi ENE 4.6 mph - N/A   Clear
5:53 PM 43.0 °F 41.3 °F 28.0 °F 56% 30.35 in 10.0 mi ENE 3.5 mph - N/A   Partly Cloudy
6:53 PM 43.0 °F - 28.9 °F 58% 30.36 in 10.0 mi Calm Calm - N/A   Overcast
7:53 PM 43.0 °F - 30.0 °F 60% 30.38 in 10.0 mi Calm Calm - N/A   Overcast
8:53 PM 43.0 °F - 32.0 °F 65% 30.39 in 10.0 mi Calm Calm - N/A   Overcast
9:53 PM 42.1 °F 39.2 °F 28.0 °F 58% 30.36 in 10.0 mi NE 4.6 mph - N/A   Clear
10:53 PM 39.9 °F 36.7 °F 28.0 °F 63% 30.35 in 10.0 mi ENE 4.6 mph - N/A   Clear
11:53 PM 37.9 °F 34.4 °F 28.0 °F 68% 30.33 in 10.0 mi NE 4.6 mph - N/A   Clear